{"data":{"norad_id":53035,"epoch":"2026-09-20T01:19:15.111264Z","epoch_age_seconds":107883,"freshness":"FRESH","line1":"1 53035U 22076BB  26263.05503601  .00001949  00000+0  66763-4 0  9996","line2":"2 53035  53.1629 276.9690 0000907  52.3330 307.7755 15.35403311232529","mean_motion":15.35403311,"eccentricity":9.07e-5,"inclination_deg":53.1629,"raan_deg":276.969,"arg_perigee_deg":52.333,"mean_anomaly_deg":307.7755,"bstar":6.6763e-5,"rev_number":23252,"period_min":93.786433159515,"perigee_km":459.10261856402,"apogee_km":460.343006334,"semimajor_km":6837.859812449,"source":"CELESTRAK","updated_at":"2026-09-20T09:00:40.148911Z"}}